Year,Month,Day,Hour,Minute,Value (Times are PST for temperature in C)
2017,05,28,00,00,22.50
2017,05,28,00,01,22.50
2017,05,28,00,02,22.50
2017,05,28,00,03,22.40
2017,05,28,00,04,22.40
2017,05,28,00,05,22.40
2017,05,28,00,06,22.40
2017,05,28,00,07,22.30
2017,05,28,00,08,22.30
2017,05,28,00,09,22.30
2017,05,28,00,10,22.20
2017,05,28,00,11,22.20
2017,05,28,00,12,22.20
2017,05,28,00,13,22.10
2017,05,28,00,14,22.10
2017,05,28,00,15,22.00
2017,05,28,00,16,22.00
2017,05,28,00,17,21.90
2017,05,28,00,18,21.90
2017,05,28,00,19,21.90
2017,05,28,00,20,21.80
2017,05,28,00,21,21.80
2017,05,28,00,22,21.80
2017,05,28,00,23,21.70
2017,05,28,00,24,21.70
2017,05,28,00,25,21.60
2017,05,28,00,26,21.60
2017,05,28,00,27,21.50
2017,05,28,00,28,21.50
2017,05,28,00,29,21.40
2017,05,28,00,30,21.40
2017,05,28,00,31,21.30
2017,05,28,00,32,21.30
2017,05,28,00,33,21.20
2017,05,28,00,34,21.20
2017,05,28,00,35,21.10
2017,05,28,00,36,21.10
2017,05,28,00,37,21.00
2017,05,28,00,38,20.90
2017,05,28,00,39,20.90
2017,05,28,00,40,20.90
2017,05,28,00,41,20.80
2017,05,28,00,42,20.80
2017,05,28,00,43,20.70
2017,05,28,00,44,20.70
2017,05,28,00,45,20.60
2017,05,28,00,46,20.60
2017,05,28,00,47,20.60
2017,05,28,00,48,20.60
2017,05,28,00,49,20.60
2017,05,28,00,50,20.60
2017,05,28,00,51,20.60
2017,05,28,00,52,20.60
2017,05,28,00,53,20.60
2017,05,28,00,54,20.60
2017,05,28,00,55,20.60
2017,05,28,00,56,20.60
2017,05,28,00,57,20.60
2017,05,28,00,58,20.60
2017,05,28,00,59,20.60
2017,05,28,01,00,20.70
2017,05,28,01,01,20.70
2017,05,28,01,02,20.70
2017,05,28,01,03,20.70
2017,05,28,01,04,20.70
2017,05,28,01,05,20.80
2017,05,28,01,06,20.80
2017,05,28,01,07,20.80
2017,05,28,01,08,20.90
2017,05,28,01,09,20.90
2017,05,28,01,10,20.90
2017,05,28,01,11,20.90
2017,05,28,01,12,20.90
2017,05,28,01,13,20.90
2017,05,28,01,14,20.80
2017,05,28,01,15,20.80
2017,05,28,01,16,20.80
2017,05,28,01,17,20.80
2017,05,28,01,18,20.80
2017,05,28,01,19,20.80
2017,05,28,01,20,20.80
2017,05,28,01,21,20.80
2017,05,28,01,22,20.70
2017,05,28,01,23,20.70
2017,05,28,01,24,20.70
2017,05,28,01,25,20.70
2017,05,28,01,26,20.60
2017,05,28,01,27,20.60
2017,05,28,01,28,20.60
2017,05,28,01,29,20.60
2017,05,28,01,30,20.50
2017,05,28,01,31,20.50
2017,05,28,01,32,20.50
2017,05,28,01,33,20.40
2017,05,28,01,34,20.40
2017,05,28,01,35,20.40
2017,05,28,01,36,20.30
2017,05,28,01,37,20.30
2017,05,28,01,38,20.20
2017,05,28,01,39,20.20
2017,05,28,01,40,20.10
2017,05,28,01,41,20.10
2017,05,28,01,42,20.00
2017,05,28,01,43,19.90
2017,05,28,01,44,19.90
2017,05,28,01,45,19.80
2017,05,28,01,46,19.80
2017,05,28,01,47,19.70
2017,05,28,01,48,19.70
2017,05,28,01,49,19.70
2017,05,28,01,50,19.60
2017,05,28,01,51,19.60
2017,05,28,01,52,19.50
2017,05,28,01,53,19.40
2017,05,28,01,54,19.40
2017,05,28,01,55,19.40
2017,05,28,01,56,19.30
2017,05,28,01,57,19.30
2017,05,28,01,58,19.20
2017,05,28,01,59,19.20
2017,05,28,02,00,19.10
2017,05,28,02,01,19.10
2017,05,28,02,02,19.00
2017,05,28,02,03,19.00
2017,05,28,02,04,18.90
2017,05,28,02,05,18.90
2017,05,28,02,06,18.80
2017,05,28,02,07,18.80
2017,05,28,02,08,18.80
2017,05,28,02,09,18.70
2017,05,28,02,10,18.70
2017,05,28,02,11,18.60
2017,05,28,02,12,18.60
2017,05,28,02,13,18.50
2017,05,28,02,14,18.50
2017,05,28,02,15,18.40
2017,05,28,02,16,18.40
2017,05,28,02,17,18.40
2017,05,28,02,18,18.30
2017,05,28,02,19,18.30
2017,05,28,02,20,18.30
2017,05,28,02,21,18.20
2017,05,28,02,22,18.20
2017,05,28,02,23,18.20
2017,05,28,02,24,18.10
2017,05,28,02,25,18.10
2017,05,28,02,26,18.10
2017,05,28,02,27,18.10
2017,05,28,02,28,18.00
2017,05,28,02,29,18.00
2017,05,28,02,30,18.00
2017,05,28,02,31,17.90
2017,05,28,02,32,17.90
2017,05,28,02,33,17.90
2017,05,28,02,34,17.90
2017,05,28,02,35,17.90
2017,05,28,02,36,17.90
2017,05,28,02,37,17.90
2017,05,28,02,38,17.90
2017,05,28,02,39,17.90
2017,05,28,02,40,17.90
2017,05,28,02,41,17.90
2017,05,28,02,42,17.90
2017,05,28,02,43,17.90
2017,05,28,02,44,17.90
2017,05,28,02,45,18.00
2017,05,28,02,46,18.00
2017,05,28,02,47,18.00
2017,05,28,02,48,18.00
2017,05,28,02,49,18.10
2017,05,28,02,50,18.10
2017,05,28,02,51,18.10
2017,05,28,02,52,18.20
2017,05,28,02,53,18.30
2017,05,28,02,54,18.30
2017,05,28,02,55,18.40
2017,05,28,02,56,18.40
2017,05,28,02,57,18.50
2017,05,28,02,58,18.60
2017,05,28,02,59,18.60
2017,05,28,03,00,18.60
2017,05,28,03,01,18.60
2017,05,28,03,02,18.60
2017,05,28,03,03,18.60
2017,05,28,03,04,18.60
2017,05,28,03,05,18.60
2017,05,28,03,06,18.60
2017,05,28,03,07,18.60
2017,05,28,03,08,18.60
2017,05,28,03,09,18.60
2017,05,28,03,10,18.60
2017,05,28,03,11,18.60
2017,05,28,03,12,18.60
2017,05,28,03,13,18.60
2017,05,28,03,14,18.60
2017,05,28,03,15,18.50
2017,05,28,03,16,18.50
2017,05,28,03,17,18.40
2017,05,28,03,18,18.40
2017,05,28,03,19,18.30
2017,05,28,03,20,18.30
2017,05,28,03,21,18.30
2017,05,28,03,22,18.20
2017,05,28,03,23,18.20
2017,05,28,03,24,18.10
2017,05,28,03,25,18.10
2017,05,28,03,26,18.10
2017,05,28,03,27,18.00
2017,05,28,03,28,18.00
2017,05,28,03,29,18.00
2017,05,28,03,30,18.00
2017,05,28,03,31,18.00
2017,05,28,03,32,18.00
2017,05,28,03,33,18.00
2017,05,28,03,34,18.00
2017,05,28,03,35,18.00
2017,05,28,03,36,18.00
2017,05,28,03,37,18.00
2017,05,28,03,38,18.00
2017,05,28,03,39,18.00
2017,05,28,03,40,18.00
2017,05,28,03,41,18.00
2017,05,28,03,42,17.90
2017,05,28,03,43,17.90
2017,05,28,03,44,17.90
2017,05,28,03,45,17.90
2017,05,28,03,46,17.80
2017,05,28,03,47,17.80
2017,05,28,03,48,17.80
2017,05,28,03,49,17.70
2017,05,28,03,50,17.70
2017,05,28,03,51,17.60
2017,05,28,03,52,17.60
2017,05,28,03,53,17.60
2017,05,28,03,54,17.50
2017,05,28,03,55,17.50
2017,05,28,03,56,17.40
2017,05,28,03,57,17.40
2017,05,28,03,58,17.40
2017,05,28,03,59,17.40
2017,05,28,04,00,17.30
2017,05,28,04,01,17.30
2017,05,28,04,02,17.40
2017,05,28,04,03,17.40
2017,05,28,04,04,17.40
2017,05,28,04,05,17.40
2017,05,28,04,06,17.40
2017,05,28,04,07,17.40
2017,05,28,04,08,17.40
2017,05,28,04,09,17.40
2017,05,28,04,10,17.50
2017,05,28,04,11,17.50
2017,05,28,04,12,17.60
2017,05,28,04,13,17.60
2017,05,28,04,14,17.60
2017,05,28,04,15,17.60
2017,05,28,04,16,17.60
2017,05,28,04,17,17.60
2017,05,28,04,18,17.60
2017,05,28,04,19,17.60
2017,05,28,04,20,17.60
2017,05,28,04,21,17.70
2017,05,28,04,22,17.70
2017,05,28,04,23,17.70
2017,05,28,04,24,17.80
2017,05,28,04,25,17.80
2017,05,28,04,26,17.80
2017,05,28,04,27,17.80
2017,05,28,04,28,17.80
2017,05,28,04,29,17.80
2017,05,28,04,30,17.80
2017,05,28,04,31,17.80
2017,05,28,04,32,17.80
2017,05,28,04,33,17.80
2017,05,28,04,34,17.80
2017,05,28,04,35,17.80
2017,05,28,04,36,17.80
2017,05,28,04,37,17.70
2017,05,28,04,38,17.70
2017,05,28,04,39,17.60
2017,05,28,04,40,17.50
2017,05,28,04,41,17.40
2017,05,28,04,42,17.30
2017,05,28,04,43,17.20
2017,05,28,04,44,17.10
2017,05,28,04,45,17.00
2017,05,28,04,46,16.90
2017,05,28,04,47,16.90
2017,05,28,04,48,16.90
2017,05,28,04,49,16.80
2017,05,28,04,50,16.80
2017,05,28,04,51,16.80
2017,05,28,04,52,16.70
2017,05,28,04,53,16.70
2017,05,28,04,54,16.70
2017,05,28,04,55,16.70
2017,05,28,04,56,16.70
2017,05,28,04,57,16.70
2017,05,28,04,58,16.70
2017,05,28,04,59,16.70
2017,05,28,05,00,16.70
2017,05,28,05,01,16.80
2017,05,28,05,02,16.80
2017,05,28,05,03,16.90
2017,05,28,05,04,16.90
2017,05,28,05,05,16.90
2017,05,28,05,06,16.90
2017,05,28,05,07,17.00
2017,05,28,05,08,17.00
2017,05,28,05,09,17.10
2017,05,28,05,10,17.10
2017,05,28,05,11,17.10
2017,05,28,05,12,17.20
2017,05,28,05,13,17.30
2017,05,28,05,14,17.30
2017,05,28,05,15,17.40
2017,05,28,05,16,17.50
2017,05,28,05,17,17.60
2017,05,28,05,18,17.70
2017,05,28,05,19,17.70
2017,05,28,05,20,17.80
2017,05,28,05,21,17.80
2017,05,28,05,22,17.80
2017,05,28,05,23,17.80
2017,05,28,05,24,17.80
2017,05,28,05,25,17.80
2017,05,28,05,26,17.80
2017,05,28,05,27,17.80
2017,05,28,05,28,17.80
2017,05,28,05,29,17.80
2017,05,28,05,30,17.80
2017,05,28,05,31,17.80
2017,05,28,05,32,17.80
2017,05,28,05,33,17.80
2017,05,28,05,34,17.80
2017,05,28,05,35,17.80
2017,05,28,05,36,17.80
2017,05,28,05,37,17.70
2017,05,28,05,38,17.70
2017,05,28,05,39,17.70
2017,05,28,05,40,17.70
2017,05,28,05,41,17.70
2017,05,28,05,42,17.60
2017,05,28,05,43,17.60
2017,05,28,05,44,17.60
2017,05,28,05,45,17.60
2017,05,28,05,46,17.60
2017,05,28,05,47,17.60
2017,05,28,05,48,17.60
2017,05,28,05,49,17.50
2017,05,28,05,50,17.50
2017,05,28,05,51,17.50
2017,05,28,05,52,17.40
2017,05,28,05,53,17.40
2017,05,28,05,54,17.40
2017,05,28,05,55,17.40
2017,05,28,05,56,17.40
2017,05,28,05,57,17.30
2017,05,28,05,58,17.30
2017,05,28,05,59,17.30
2017,05,28,06,00,17.20
2017,05,28,06,01,17.20
2017,05,28,06,02,17.20
2017,05,28,06,03,17.20
2017,05,28,06,04,17.10
2017,05,28,06,05,17.10
2017,05,28,06,06,17.10
2017,05,28,06,07,17.10
2017,05,28,06,08,17.00
2017,05,28,06,09,17.00
2017,05,28,06,10,17.00
2017,05,28,06,11,16.90
2017,05,28,06,12,16.90
2017,05,28,06,13,16.90
2017,05,28,06,14,16.90
2017,05,28,06,15,16.80
2017,05,28,06,16,16.80
2017,05,28,06,17,16.80
2017,05,28,06,18,16.80
2017,05,28,06,19,16.70
2017,05,28,06,20,16.70
2017,05,28,06,21,16.70
2017,05,28,06,22,16.70
2017,05,28,06,23,16.80
2017,05,28,06,24,16.80
2017,05,28,06,25,16.80
2017,05,28,06,26,16.80
2017,05,28,06,27,16.80
2017,05,28,06,28,16.80
2017,05,28,06,29,16.80
2017,05,28,06,30,16.80
2017,05,28,06,31,16.80
2017,05,28,06,32,16.80
2017,05,28,06,33,16.80
2017,05,28,06,34,16.80
2017,05,28,06,35,16.80
2017,05,28,06,36,16.90
2017,05,28,06,37,16.90
2017,05,28,06,38,16.90
2017,05,28,06,39,16.90
2017,05,28,06,40,16.90
2017,05,28,06,41,16.90
2017,05,28,06,42,16.90
2017,05,28,06,43,16.90
2017,05,28,06,44,16.90
2017,05,28,06,45,16.90
2017,05,28,06,46,16.90
2017,05,28,06,47,16.90
2017,05,28,06,48,16.90
2017,05,28,06,49,16.90
2017,05,28,06,50,16.90
2017,05,28,06,51,16.90
2017,05,28,06,52,16.90
2017,05,28,06,53,16.90
2017,05,28,06,54,16.90
2017,05,28,06,55,16.90
2017,05,28,06,56,16.90
2017,05,28,06,57,16.90
2017,05,28,06,58,16.90
2017,05,28,06,59,16.80
2017,05,28,07,00,16.80
2017,05,28,07,01,16.80
2017,05,28,07,02,16.80
2017,05,28,07,03,16.80
2017,05,28,07,04,16.80
2017,05,28,07,05,16.80
2017,05,28,07,06,16.80
2017,05,28,07,07,16.80
2017,05,28,07,08,16.80
2017,05,28,07,09,16.90
2017,05,28,07,10,16.90
2017,05,28,07,11,16.90
2017,05,28,07,12,16.90
2017,05,28,07,13,16.90
2017,05,28,07,14,16.90
2017,05,28,07,15,16.90
2017,05,28,07,16,16.90
2017,05,28,07,17,16.90
2017,05,28,07,18,17.00
2017,05,28,07,19,17.00
2017,05,28,07,20,17.10
2017,05,28,07,21,17.10
2017,05,28,07,22,17.10
2017,05,28,07,23,17.20
2017,05,28,07,24,17.30
2017,05,28,07,25,17.30
2017,05,28,07,26,17.40
2017,05,28,07,27,17.40
2017,05,28,07,28,17.50
2017,05,28,07,29,17.50
2017,05,28,07,30,17.60
2017,05,28,07,31,17.60
2017,05,28,07,32,17.70
2017,05,28,07,33,17.70
2017,05,28,07,34,17.70
2017,05,28,07,35,17.80
2017,05,28,07,36,17.80
2017,05,28,07,37,17.80
2017,05,28,07,38,17.80
2017,05,28,07,39,17.90
2017,05,28,07,40,17.90
2017,05,28,07,41,17.90
2017,05,28,07,42,17.90
2017,05,28,07,43,17.90
2017,05,28,07,44,17.90
2017,05,28,07,45,17.90
2017,05,28,07,46,17.90
2017,05,28,07,47,17.90
2017,05,28,07,48,17.90
2017,05,28,07,49,17.90
2017,05,28,07,50,17.90
2017,05,28,07,51,18.00
2017,05,28,07,52,18.00
2017,05,28,07,53,18.10
2017,05,28,07,54,18.10
2017,05,28,07,55,18.20
2017,05,28,07,56,18.20
2017,05,28,07,57,18.30
2017,05,28,07,58,18.30
2017,05,28,07,59,18.40
2017,05,28,08,00,18.50
2017,05,28,08,01,18.50
2017,05,28,08,02,18.60
2017,05,28,08,03,18.60
2017,05,28,08,04,18.70
2017,05,28,08,05,18.70
2017,05,28,08,06,18.70
2017,05,28,08,07,18.80
2017,05,28,08,08,18.80
2017,05,28,08,09,18.90
2017,05,28,08,10,18.90
2017,05,28,08,11,18.90
2017,05,28,08,12,18.90
2017,05,28,08,13,18.90
2017,05,28,08,14,18.90
2017,05,28,08,15,18.90
2017,05,28,08,16,18.90
2017,05,28,08,17,19.00
2017,05,28,08,18,19.00
2017,05,28,08,19,19.10
2017,05,28,08,20,19.10
2017,05,28,08,21,19.10
2017,05,28,08,22,19.20
2017,05,28,08,23,19.20
2017,05,28,08,24,19.20
2017,05,28,08,25,19.30
2017,05,28,08,26,19.30
2017,05,28,08,27,19.40
2017,05,28,08,28,19.50
2017,05,28,08,29,19.50
2017,05,28,08,30,19.60
2017,05,28,08,31,19.60
2017,05,28,08,32,19.60
2017,05,28,08,33,19.60
2017,05,28,08,34,19.60
2017,05,28,08,35,19.60
2017,05,28,08,36,19.60
2017,05,28,08,37,19.60
2017,05,28,08,38,19.60
2017,05,28,08,39,19.60
2017,05,28,08,40,19.50
2017,05,28,08,41,19.50
2017,05,28,08,42,19.50
2017,05,28,08,43,19.50
2017,05,28,08,44,19.50
2017,05,28,08,45,19.50
2017,05,28,08,46,19.50
2017,05,28,08,47,19.60
2017,05,28,08,48,19.60
2017,05,28,08,49,19.60
2017,05,28,08,50,19.60
2017,05,28,08,51,19.70
2017,05,28,08,52,19.70
2017,05,28,08,53,19.70
2017,05,28,08,54,19.70
2017,05,28,08,55,19.80
2017,05,28,08,56,19.80
2017,05,28,08,57,19.80
2017,05,28,08,58,19.90
2017,05,28,08,59,19.90
2017,05,28,09,00,19.90
2017,05,28,09,01,20.00
2017,05,28,09,02,20.00
2017,05,28,09,03,20.10
2017,05,28,09,04,20.10
2017,05,28,09,05,20.20
2017,05,28,09,06,20.20
2017,05,28,09,07,20.30
2017,05,28,09,08,20.30
2017,05,28,09,09,20.40
2017,05,28,09,10,20.40
2017,05,28,09,11,20.40
2017,05,28,09,12,20.40
2017,05,28,09,13,20.40
2017,05,28,09,14,20.50
2017,05,28,09,15,20.50
2017,05,28,09,16,20.60
2017,05,28,09,17,20.60
2017,05,28,09,18,20.70
2017,05,28,09,19,20.70
2017,05,28,09,20,20.70
2017,05,28,09,21,20.80
2017,05,28,09,22,20.80
2017,05,28,09,23,20.90
2017,05,28,09,24,20.90
2017,05,28,09,25,21.00
2017,05,28,09,26,21.00
2017,05,28,09,27,21.00
2017,05,28,09,28,21.00
2017,05,28,09,29,21.00
2017,05,28,09,30,21.00
2017,05,28,09,31,21.00
2017,05,28,09,32,21.00
2017,05,28,09,33,21.10
2017,05,28,09,34,21.10
2017,05,28,09,35,21.10
2017,05,28,09,36,21.10
2017,05,28,09,37,21.20
2017,05,28,09,38,21.20
2017,05,28,09,39,21.30
2017,05,28,09,40,21.30
2017,05,28,09,41,21.30
2017,05,28,09,42,21.30
2017,05,28,09,43,21.30
2017,05,28,09,44,21.20
2017,05,28,09,45,21.20
2017,05,28,09,46,21.20
2017,05,28,09,47,21.20
2017,05,28,09,48,21.30
2017,05,28,09,49,21.30
2017,05,28,09,50,21.40
2017,05,28,09,51,21.40
2017,05,28,09,52,21.40
2017,05,28,09,53,21.40
2017,05,28,09,54,21.50
2017,05,28,09,55,21.50
2017,05,28,09,56,21.50
2017,05,28,09,57,21.50
2017,05,28,09,58,21.60
2017,05,28,09,59,21.60
2017,05,28,10,00,21.50
2017,05,28,10,01,21.40
2017,05,28,10,02,21.30
2017,05,28,10,03,21.30
2017,05,28,10,04,21.30
2017,05,28,10,05,21.20
2017,05,28,10,06,21.20
2017,05,28,10,07,21.30
2017,05,28,10,08,21.30
2017,05,28,10,09,21.30
2017,05,28,10,10,21.30
2017,05,28,10,11,21.30
2017,05,28,10,12,21.40
2017,05,28,10,13,21.40
2017,05,28,10,14,21.40
2017,05,28,10,15,21.50
2017,05,28,10,16,21.60
2017,05,28,10,17,21.60
2017,05,28,10,18,21.70
2017,05,28,10,19,21.70
2017,05,28,10,20,21.70
2017,05,28,10,21,21.80
2017,05,28,10,22,21.80
2017,05,28,10,23,21.90
2017,05,28,10,24,21.90
2017,05,28,10,25,21.90
2017,05,28,10,26,21.90
2017,05,28,10,27,22.00
2017,05,28,10,28,22.00
2017,05,28,10,29,22.10
2017,05,28,10,30,22.10
2017,05,28,10,31,22.10
2017,05,28,10,32,22.10
2017,05,28,10,33,22.10
2017,05,28,10,34,22.10
2017,05,28,10,35,22.10
2017,05,28,10,36,22.10
2017,05,28,10,37,22.20
2017,05,28,10,38,22.20
2017,05,28,10,39,22.30
2017,05,28,10,40,22.30
2017,05,28,10,41,22.30
2017,05,28,10,42,22.30
2017,05,28,10,43,22.30
2017,05,28,10,44,22.30
2017,05,28,10,45,22.40
2017,05,28,10,46,22.40
2017,05,28,10,47,22.50
2017,05,28,10,48,22.50
2017,05,28,10,49,22.60
2017,05,28,10,50,22.70
2017,05,28,10,51,22.80
2017,05,28,10,52,22.80
2017,05,28,10,53,22.90
2017,05,28,10,54,22.90
2017,05,28,10,55,23.00
2017,05,28,10,56,23.00
2017,05,28,10,57,23.10
2017,05,28,10,58,23.10
2017,05,28,10,59,23.10
2017,05,28,11,00,23.10
2017,05,28,11,01,23.00
2017,05,28,11,02,23.00
2017,05,28,11,03,23.00
2017,05,28,11,04,23.10
2017,05,28,11,05,23.10
2017,05,28,11,06,23.10
2017,05,28,11,07,23.10
2017,05,28,11,08,23.10
2017,05,28,11,09,23.00
2017,05,28,11,10,23.00
2017,05,28,11,11,23.00
2017,05,28,11,12,23.00
2017,05,28,11,13,23.00
2017,05,28,11,14,23.10
2017,05,28,11,15,23.10
2017,05,28,11,16,23.20
2017,05,28,11,17,23.20
2017,05,28,11,18,23.20
2017,05,28,11,19,23.20
2017,05,28,11,20,23.20
2017,05,28,11,21,23.10
2017,05,28,11,22,23.10
2017,05,28,11,23,23.20
2017,05,28,11,24,23.20
2017,05,28,11,25,23.30
2017,05,28,11,26,23.40
2017,05,28,11,27,23.50
2017,05,28,11,28,23.60
2017,05,28,11,29,23.70
2017,05,28,11,30,23.70
2017,05,28,11,31,23.70
2017,05,28,11,32,23.70
2017,05,28,11,33,23.70
2017,05,28,11,34,23.60
2017,05,28,11,35,23.60
2017,05,28,11,36,23.60
2017,05,28,11,37,23.60
2017,05,28,11,38,23.70
2017,05,28,11,39,23.70
2017,05,28,11,40,23.70
2017,05,28,11,41,23.70
2017,05,28,11,42,23.80
2017,05,28,11,43,23.80
2017,05,28,11,44,23.80
2017,05,28,11,45,23.90
2017,05,28,11,46,23.90
2017,05,28,11,47,24.00
2017,05,28,11,48,24.00
2017,05,28,11,49,24.00
2017,05,28,11,50,24.10
2017,05,28,11,51,24.10
2017,05,28,11,52,24.20
2017,05,28,11,53,24.20
2017,05,28,11,54,24.30
2017,05,28,11,55,24.30
2017,05,28,11,56,24.40
2017,05,28,11,57,24.40
2017,05,28,11,58,24.40
2017,05,28,11,59,24.50
2017,05,28,12,00,24.50
2017,05,28,12,01,24.60
2017,05,28,12,02,24.60
2017,05,28,12,03,24.60
2017,05,28,12,04,24.60
2017,05,28,12,05,24.60
2017,05,28,12,06,24.50
2017,05,28,12,07,24.50
2017,05,28,12,08,24.50
2017,05,28,12,09,24.40
2017,05,28,12,10,24.40
2017,05,28,12,11,24.40
2017,05,28,12,12,24.40
2017,05,28,12,13,24.30
2017,05,28,12,14,24.30
2017,05,28,12,15,24.30
2017,05,28,12,16,24.30
2017,05,28,12,17,24.30
2017,05,28,12,18,24.30
2017,05,28,12,19,24.40
2017,05,28,12,20,24.50
2017,05,28,12,21,24.60
2017,05,28,12,22,24.70
2017,05,28,12,23,24.70
2017,05,28,12,24,24.70
2017,05,28,12,25,24.70
2017,05,28,12,26,24.60
2017,05,28,12,27,24.60
2017,05,28,12,28,24.60
2017,05,28,12,29,24.60
2017,05,28,12,30,24.60
2017,05,28,12,31,24.70
2017,05,28,12,32,24.80
2017,05,28,12,33,24.80
2017,05,28,12,34,24.90
2017,05,28,12,35,25.00
2017,05,28,12,36,25.00
2017,05,28,12,37,25.00
2017,05,28,12,38,25.00
2017,05,28,12,39,24.90
2017,05,28,12,40,24.90
2017,05,28,12,41,24.80
2017,05,28,12,42,24.80
2017,05,28,12,43,24.80
2017,05,28,12,44,24.80
2017,05,28,12,45,24.80
2017,05,28,12,46,24.90
2017,05,28,12,47,24.90
2017,05,28,12,48,24.90
2017,05,28,12,49,24.80
2017,05,28,12,50,24.80
2017,05,28,12,51,24.80
2017,05,28,12,52,24.70
2017,05,28,12,53,24.70
2017,05,28,12,54,24.70
2017,05,28,12,55,24.70
2017,05,28,12,56,24.80
2017,05,28,12,57,24.80
2017,05,28,12,58,24.90
2017,05,28,12,59,24.90
2017,05,28,13,00,25.00
2017,05,28,13,01,25.00
2017,05,28,13,02,25.10
2017,05,28,13,03,25.10
2017,05,28,13,04,25.20
2017,05,28,13,05,25.30
2017,05,28,13,06,25.40
2017,05,28,13,07,25.50
2017,05,28,13,08,25.60
2017,05,28,13,09,25.70
2017,05,28,13,10,25.70
2017,05,28,13,11,25.70
2017,05,28,13,12,25.60
2017,05,28,13,13,25.60
2017,05,28,13,14,25.60
2017,05,28,13,15,25.60
2017,05,28,13,16,25.60
2017,05,28,13,17,25.60
2017,05,28,13,18,25.70
2017,05,28,13,19,25.70
2017,05,28,13,20,25.70
2017,05,28,13,21,25.60
2017,05,28,13,22,25.60
2017,05,28,13,23,25.60
2017,05,28,13,24,25.50
2017,05,28,13,25,25.50
2017,05,28,13,26,25.40
2017,05,28,13,27,25.40
2017,05,28,13,28,25.40
2017,05,28,13,29,25.40
2017,05,28,13,30,25.40
2017,05,28,13,31,25.40
2017,05,28,13,32,25.40
2017,05,28,13,33,25.50
2017,05,28,13,34,25.60
2017,05,28,13,35,25.70
2017,05,28,13,36,25.80
2017,05,28,13,37,25.80
2017,05,28,13,38,26.00
2017,05,28,13,39,26.10
2017,05,28,13,40,26.20
2017,05,28,13,41,26.20
2017,05,28,13,42,26.10
2017,05,28,13,43,26.10
2017,05,28,13,44,26.20
2017,05,28,13,45,26.20
2017,05,28,13,46,26.20
2017,05,28,13,47,26.20
2017,05,28,13,48,26.20
2017,05,28,13,49,26.10
2017,05,28,13,50,26.10
2017,05,28,13,51,26.20
2017,05,28,13,52,26.20
2017,05,28,13,53,26.20
2017,05,28,13,54,26.30
2017,05,28,13,55,26.30
2017,05,28,13,56,26.40
2017,05,28,13,57,26.40
2017,05,28,13,58,26.50
2017,05,28,13,59,26.60
2017,05,28,14,00,26.60
2017,05,28,14,01,26.60
2017,05,28,14,02,26.60
2017,05,28,14,03,26.70
2017,05,28,14,04,26.70
2017,05,28,14,05,26.70
2017,05,28,14,06,26.70
2017,05,28,14,07,26.70
2017,05,28,14,08,26.70
2017,05,28,14,09,26.70
2017,05,28,14,10,26.70
2017,05,28,14,11,26.70
2017,05,28,14,12,26.60
2017,05,28,14,13,26.60
2017,05,28,14,14,26.60
2017,05,28,14,15,26.60
2017,05,28,14,16,26.60
2017,05,28,14,17,26.50
2017,05,28,14,18,26.40
2017,05,28,14,19,26.40
2017,05,28,14,20,26.40
2017,05,28,14,21,26.40
2017,05,28,14,22,26.30
2017,05,28,14,23,26.30
2017,05,28,14,24,26.30
2017,05,28,14,25,26.30
2017,05,28,14,26,26.30
2017,05,28,14,27,26.30
2017,05,28,14,28,26.40
2017,05,28,14,29,26.50
2017,05,28,14,30,26.50
2017,05,28,14,31,26.60
2017,05,28,14,32,26.60
2017,05,28,14,33,26.70
2017,05,28,14,34,26.80
2017,05,28,14,35,26.90
2017,05,28,14,36,27.00
2017,05,28,14,37,27.10
2017,05,28,14,38,27.10
2017,05,28,14,39,27.20
2017,05,28,14,40,27.20
2017,05,28,14,41,27.30
2017,05,28,14,42,27.30
2017,05,28,14,43,27.20
2017,05,28,14,44,27.20
2017,05,28,14,45,27.20
2017,05,28,14,46,27.20
2017,05,28,14,47,27.10
2017,05,28,14,48,27.10
2017,05,28,14,49,27.10
2017,05,28,14,50,27.10
2017,05,28,14,51,27.10
2017,05,28,14,52,27.00
2017,05,28,14,53,27.00
2017,05,28,14,54,26.90
2017,05,28,14,55,26.90
2017,05,28,14,56,26.90
2017,05,28,14,57,26.80
2017,05,28,14,58,26.80
2017,05,28,14,59,26.80
2017,05,28,15,00,26.70
2017,05,28,15,01,26.70
2017,05,28,15,02,26.70
2017,05,28,15,03,26.70
2017,05,28,15,04,26.80
2017,05,28,15,05,26.80
2017,05,28,15,06,26.80
2017,05,28,15,07,26.70
2017,05,28,15,08,26.70
2017,05,28,15,09,26.60
2017,05,28,15,10,26.60
2017,05,28,15,11,26.50
2017,05,28,15,12,26.50
2017,05,28,15,13,26.50
2017,05,28,15,14,26.50
2017,05,28,15,15,26.50
2017,05,28,15,16,26.50
2017,05,28,15,17,26.60
2017,05,28,15,18,26.60
2017,05,28,15,19,26.60
2017,05,28,15,20,26.50
2017,05,28,15,21,26.50
2017,05,28,15,22,26.50
2017,05,28,15,23,26.50
2017,05,28,15,24,26.40
2017,05,28,15,25,26.40
2017,05,28,15,26,26.40
2017,05,28,15,27,26.40
2017,05,28,15,28,26.30
2017,05,28,15,29,26.40
2017,05,28,15,30,26.40
2017,05,28,15,31,26.40
2017,05,28,15,32,26.40
2017,05,28,15,33,26.30
2017,05,28,15,34,26.30
2017,05,28,15,35,26.20
2017,05,28,15,36,26.20
2017,05,28,15,37,26.10
2017,05,28,15,38,26.00
2017,05,28,15,39,25.90
2017,05,28,15,40,25.80
2017,05,28,15,41,25.80
2017,05,28,15,42,25.70
2017,05,28,15,43,25.70
2017,05,28,15,44,25.70
2017,05,28,15,45,25.70
2017,05,28,15,46,25.70
2017,05,28,15,47,25.80
2017,05,28,15,48,25.90
2017,05,28,15,49,26.00
2017,05,28,15,50,26.00
2017,05,28,15,51,26.10
2017,05,28,15,52,26.10
2017,05,28,15,53,26.20
2017,05,28,15,54,26.20
2017,05,28,15,55,26.20
2017,05,28,15,56,26.30
2017,05,28,15,57,26.30
2017,05,28,15,58,26.30
2017,05,28,15,59,26.40
2017,05,28,16,00,26.40
2017,05,28,16,01,26.40
2017,05,28,16,02,26.40
2017,05,28,16,03,26.40
2017,05,28,16,04,26.40
2017,05,28,16,05,26.40
2017,05,28,16,06,26.40
2017,05,28,16,07,26.40
2017,05,28,16,08,26.40
2017,05,28,16,09,26.40
2017,05,28,16,10,26.40
2017,05,28,16,11,26.40
2017,05,28,16,12,26.40
2017,05,28,16,13,26.40
2017,05,28,16,14,26.40
2017,05,28,16,15,26.50
2017,05,28,16,16,26.40
2017,05,28,16,17,26.40
2017,05,28,16,18,26.40
2017,05,28,16,19,26.40
2017,05,28,16,20,26.30
2017,05,28,16,21,26.30
2017,05,28,16,22,26.20
2017,05,28,16,23,26.20
2017,05,28,16,24,26.20
2017,05,28,16,25,26.10
2017,05,28,16,26,26.10
2017,05,28,16,27,26.00
2017,05,28,16,28,26.10
2017,05,28,16,29,26.10
2017,05,28,16,30,26.10
2017,05,28,16,31,26.10
2017,05,28,16,32,26.10
2017,05,28,16,33,26.10
2017,05,28,16,34,26.10
2017,05,28,16,35,26.20
2017,05,28,16,36,26.20
2017,05,28,16,37,26.20
2017,05,28,16,38,26.30
2017,05,28,16,39,26.40
2017,05,28,16,40,26.40
2017,05,28,16,41,26.40
2017,05,28,16,42,26.50
2017,05,28,16,43,26.50
2017,05,28,16,44,26.40
2017,05,28,16,45,26.40
2017,05,28,16,46,26.40
2017,05,28,16,47,26.50
2017,05,28,16,48,26.50
2017,05,28,16,49,26.50
2017,05,28,16,50,26.60
2017,05,28,16,51,26.60
2017,05,28,16,52,26.60
2017,05,28,16,53,26.70
2017,05,28,16,54,26.70
2017,05,28,16,55,26.80
2017,05,28,16,56,26.80
2017,05,28,16,57,26.70
2017,05,28,16,58,26.60
2017,05,28,16,59,26.50
2017,05,28,17,00,26.40
2017,05,28,17,01,26.40
2017,05,28,17,02,26.40
2017,05,28,17,03,26.40
2017,05,28,17,04,26.50
2017,05,28,17,05,26.50
2017,05,28,17,06,26.60
2017,05,28,17,07,26.50
2017,05,28,17,08,26.60
2017,05,28,17,09,26.50
2017,05,28,17,10,26.50
2017,05,28,17,11,26.60
2017,05,28,17,12,26.60
2017,05,28,17,13,26.60
2017,05,28,17,14,26.60
2017,05,28,17,15,26.60
2017,05,28,17,16,26.60
2017,05,28,17,17,26.60
2017,05,28,17,18,26.60
2017,05,28,17,19,26.60